{"data":{"norad_id":53841,"intl_designator":"2022-114Z","name":"STARLINK-4750","alt_names":[],"object_type":"PAYLOAD","status":"ACTIVE","operator":null,"country":"US","launch_date":"2022-09-19","launch_site_code":"AFETR","launch_vehicle":null,"mission":null,"orbit_class":"UNKNOWN","rcs_meters":null,"size_class":null,"mass_kg":null,"dimensions":null,"purposes":["comms"],"wikipedia_slug":null,"has_3d_model":false,"image_url":null,"decayed_at":null,"tle_current":{"epoch":"2026-05-25T03:44:56.207040Z","epoch_age_seconds":68438,"freshness":"FRESH","line1":"1 53841U 22114Z   26145.15620610  .00001810  00000+0  13172-3 0  9996","line2":"2 53841  53.2125 310.9773 0001099 123.0727 237.0371 15.08850577204513","mean_motion":15.08850577,"eccentricity":0.0001099,"inclination_deg":53.2125,"raan_deg":310.9773,"arg_perigee_deg":123.0727,"mean_anomaly_deg":237.0371,"bstar":0.00013172,"rev_number":20451,"period_min":95.436885663198,"perigee_km":538.95078799362,"apogee_km":540.47133099709,"semimajor_km":6917.8480594954,"source":"CELESTRAK","updated_at":"2026-05-25T13:38:17.574066Z"}}}